Regional Weather Roundup
Issued by NWS

Home | Current Version | Previous Version | Text Only | Print | Product List | Glossary On
Versions: 1 2 3 4 5 6 7 8 9 10 11 12 13 14 15 16 17 18 19 20 21 22 23 24 25 26 27 28 29 30 31 32 33 34 35 36 37 38 39 40 41 42 43 44 45 46 47 48 49 50
000
ASUS43 KLOT 200109
RWRIL

ILLINOIS REGIONAL WEATHER ROUNDUP
NATIONAL WEATHER SERVICE CHICAGO/ROMEOVILLE IL
800 PM CDT THU OCT 19 2017

NOTE: "FAIR" INDICATES FEW OR NO CLOUDS BELOW 12,000 FEET WITH NO
SIGNIFICANT WEATHER AND/OR OBSTRUCTIONS TO VISIBILITY.

* THESE STATIONS ARE NOT UNDER NWS QUALITY CONTROL. THEY ALSO MAY NOT
  REPORT WEATHER SUCH AS PRECIPITATION OR FOG.

ILZ001-002-007-009-015-016-024-200200-
NORTHWEST ILLINOIS

CITY           SKY/WX    TMP DP  RH WIND       PRES   REMARKS
MOLINE         CLEAR     59  50  72 SE6       30.10
STERLING*      CLOUDY    56  43  61 SE5         N/A
SAVANNA*       CLOUDY    58  41  53 CALM      30.12S
$$

ILZ003-004-008-010-011-017-018-200200-
NORTH CENTRAL ILLINOIS

CITY           SKY/WX    TMP DP  RH WIND       PRES   REMARKS
ROCKFORD       PTCLDY    57  35  43 SE7       30.15S
FREEPORT*      CLOUDY    52  36  54 S7        30.15S
ROCHELLE*      CLOUDY    55  37  51 SE6       30.15R
DE KALB*       CLEAR     58  35  41 SE8       30.16S
PERU*          CLOUDY    62  39  43 E7        30.14F
$$

ILZ005-006-012>014-019>023-200200-
NORTHEAST ILLINOIS

CITY           SKY/WX    TMP DP  RH WIND       PRES   REMARKS
CHICAGO-OHARE  PTCLDY    57  30  35 SE7       30.16S
CHICAGO-MIDWAY MOCLDY    59  40  49 SE5       30.17S
AURORA         CLEAR     56  39  53 SE5       30.16S
LANSING*       CLOUDY    54  42  63 CALM      30.18S
JOLIET*        CLOUDY    58  38  48 CALM      30.16S
WAUKEGAN       CLEAR     51  32  48 S5        30.16S
DUPAGE AIRPORT CLOUDY    56  35  45 SE5       30.16R
KANKAKEE*      CLOUDY    58  41  53 E3        30.17S
WHEELING       CLEAR     52  35  52 CALM      30.18S
MORRIS*        CLOUDY    60  36  41 E8        30.14F
ROMEOVILLE*    CLOUDY    57  34  42 E6        30.16F
NORTHERLY ISL    N/A     57  47  69 SE5         N/A
$$

LMZ740>746-200200-
SOUTHERN LAKE MICHIGAN

STATION/POSITION SKY/WX   TEMP    WIND        PRES    VSBY  WAVE
                          AIR SEA DIR/SP/G                  HT/PER
                          (F)     (DEG/KT/KT) (MB)    (MI)  (FT/S)
SOUTHERN BUOY              61 61  200/ 12/ 14 1021.5          1/ 3
WILMETTE HARBOR            59 58  150/  8/ 10   N/A           1/ 2
HARRISON CRIB              60     160/  7/ 10   N/A
BURNHAM HARBOR             57     120/  3/  8   N/A
CALUMET HARBOR             59     100/  3/  4 1021.2S
BURNS HARBOR               63     140/  2/  7 1022.4S
MICHIGAN CITY              57     130/  7/  7   N/A
MICHIGAN CITY 6N           58 58  130/  4/  6   N/A           1/ 5
ST. JOSEPH                 57 59  160/  4/  4 1022.5          1/ 5
$$

ILZ025>027-034>036-040-047-049-050-058-095>099-200200-
WEST-CENTRAL ILLINOIS

CITY           SKY/WX    TMP DP  RH WIND       PRES   REMARKS
GALESBURG*     CLEAR     70  60  71 S3        30.13S
MACOMB*        CLEAR     62  51  69 S8        30.14S
JACKSONVILLE*  CLEAR     65  51  59 SE5       30.15S
PITTSFIELD*    CLEAR     65  53  65 CALM      30.15S
$$

ILZ028>032-037-038-041>044-048-051>054-059>061-200200-
CENTRAL ILLINOIS

CITY           SKY/WX    TMP DP  RH WIND       PRES   REMARKS
PONTIAC        CLEAR     60  52  76 SE7       30.16S
BLOOMINGTON    CLEAR     60  51  72 S6        30.17R
DECATUR        CLEAR     63  51  65 S3        30.17R
PEORIA         CLEAR     66  53  63 S6        30.13S
LACON*         CLEAR     59  52  78 SE3       30.13S
LINCOLN*       CLEAR     61  52  71 CALM      30.15S
SPRINGFIELD    CLEAR     64  52  64 S7        30.16R
TAYLORVILLE    CLEAR     62  50  65 S5        30.16S
$$

ILZ033-039-045-046-055>057-062-063-200200-
EAST-CENTRAL ILLINOIS

CITY           SKY/WX    TMP DP  RH WIND       PRES   REMARKS
CHAMPAIGN      CLEAR     62  49  62 S6        30.18R
DANVILLE*      CLEAR     63  52  69 SE6       30.16R
RANTOUL*       CLEAR     63  54  74 CALM      30.17S
MATTOON        CLEAR     64  53  67 S5        30.17S
PARIS*         CLEAR     56  50  80 S3        30.19S
$$

ILZ079-100>102-200200-
SOUTHWEST ILLINOIS

CITY           SKY/WX    TMP DP  RH WIND       PRES   REMARKS
ALTON          CLEAR     59  54  82 CALM      30.16S
BELLEVILLE     CLEAR     64  48  56 SE3       30.19R
CAHOKIA*       CLEAR     68  49  50 SE8       30.15R
SPARTA*        CLEAR     65  51  61 SE5       30.18S
$$

ILZ064>066-069>071-074>076-080>082-084>086-088>090-092>094-200200-
SOUTH-CENTRAL ILLINOIS

CITY           SKY/WX    TMP DP  RH WIND       PRES   REMARKS
CARBONDALE     CLEAR     54  52  93 SE5       30.19R
CAIRO*         CLEAR     56  52  87 CALM      30.20R
EFFINGHAM*     CLEAR     59  52  76 CALM      30.20S
MARION         CLEAR     64  53  65 CALM      30.20S
MT. VERNON     CLEAR     53  52  96 CALM      30.20R
CENTRALIA*     CLEAR     63  51  65 S3        30.18S
SALEM*         CLEAR     68  50  52 S5        30.18S
METROPOLIS*    CLEAR     58  53  84 CALM      30.21S
$$

ILZ067-068-072-073-078-083-087-091-200200-
SOUTHEAST ILLINOIS

CITY           SKY/WX    TMP DP  RH WIND       PRES   REMARKS
LAWRENCEVILLE  CLEAR     61  54  77 S5        30.20R
FLORA*         CLEAR     60  53  78 CALM      30.19S
FAIRFIELD*     CLEAR     60  53  78 CALM      30.19R
HARRISBURG*    CLEAR     59  52  78 CALM      30.20S
ROBINSON*      CLEAR     55  50  84 S3        30.20S
CARMI*         CLEAR     56  50  80 S3        30.20S
$$

ABBREVIATIONS USED IN REMARKS
   TC - TEMPERATURE IN CELSIUS
  WCI - WIND CHILL INDEX
   HX - HEAT INDEX
  VSB - VISIBILITY
$$





USA.gov is the U.S. government's official web portal to all federal, state and local government web resources and services.